Waarnemingen

Advertentie
Mijn weer
Tain Range, Groot Brittannië (3062): temperatuur & dauwpunt: 16.10.2017 13:00:00 - 22.10.2017 13:00:00 (BST)Tain Range, Groot Brittannië (3062): temperatuur -20cm & temperatuur -100cm: 16.10.2017 13:00:00 - 22.10.2017 13:00:00 (BST)Tain Range, Groot Brittannië (3062): windsnelheid & windstoten: 16.10.2017 13:00:00 - 22.10.2017 13:00:00 (BST)Tain Range, Groot Brittannië (3062): windrichting: 16.10.2017 13:00:00 - 22.10.2017 13:00:00 (BST)Tain Range, Groot Brittannië (3062): luchtdruk: 16.10.2017 13:00:00 - 22.10.2017 13:00:00 (BST)Tain Range, Groot Brittannië (3062): zicht: 16.10.2017 13:00:00 - 22.10.2017 13:00:00 (BST)Tain Range, Groot Brittannië (3062): neerslag: 16.10.2017 13:00:00 - 22.10.2017 13:00:00 (BST)
Datum & Tijd tt [°C] td [°C] tt -20cm [°C] tt -100cm [°C] ff [km/u] ff [kn] fx [km/u] fx [kn] dd ppp [hPa] vv [km] rr [mm]
22.10.2017 13:00:00 - - - - - - - - - - - -
22.10.2017 12:00:00 12,4 11,2 - - 18 10 - - WNW 1003,2 29 0,0
22.10.2017 11:00:00 11,5 10,7 - - 15 8 - - WNW 1002,4 15 0,0
22.10.2017 10:00:00 10,9 10,5 11,7 11,0 16 9 - - WNW 1001,6 17 0,0
22.10.2017 09:00:00 10,4 10,0 - - 15 8 - - WNW 1000,7 18 0,0
22.10.2017 08:00:00 10,3 10,1 - - 16 9 - - WNW 999,6 19 0,6
22.10.2017 07:00:00 10,5 10,4 - - 11 6 - - WNW 998,7 10 1,2
22.10.2017 06:00:00 11,2 11,2 - - 4 2 - - ZO 997,7 9 0,8
22.10.2017 05:00:00 11,0 11,0 - - 9 5 - - WNW 996,8 4,7 0,0
22.10.2017 04:00:00 11,2 11,2 - - 8 4 - - N 996,2 7 -
22.10.2017 03:00:00 9,8 9,8 - - 2 1 - - NW 995,6 4,0 0,2
22.10.2017 02:00:00 10,4 10,3 - - 4 2 - - N 994,9 3,4 0,0
22.10.2017 01:00:00 11,0 10,8 - - 4 2 - - O 994,3 5 0,0
22.10.2017 00:00:00 11,2 10,7 - - 9 5 - - ONO 993,8 5 0,0
21.10.2017 23:00:00 11,6 11,0 - - 9 5 - - ONO 993,1 5 0,0
21.10.2017 22:00:00 11,6 10,7 - - 11 6 - - O 992,5 9 0,0
21.10.2017 21:00:00 11,7 10,4 - - 13 7 - - O 991,8 11 0,0
21.10.2017 20:00:00 11,8 10,2 - - 15 8 - - O 991,3 12 0,0
21.10.2017 19:00:00 11,8 10,4 - - 18 10 - - O 990,7 14 0,0
21.10.2017 18:00:00 11,7 9,6 - - 13 7 - - O 990,3 22 0,0
21.10.2017 17:00:00 12,7 9,3 - - 18 10 - - OZO 989,8 30 0,0
21.10.2017 16:00:00 13,9 10,2 - - 22 12 - - OZO 989,5 27 0,0
21.10.2017 15:00:00 13,6 11,4 - - 18 10 - - O 989,6 15 0,0
21.10.2017 14:00:00 13,9 10,8 - - 16 9 - - O 990,0 35 0,0
21.10.2017 13:00:00 13,6 11,0 - - 21 11 - - O 990,0 25 0,0
21.10.2017 12:00:00 13,3 11,0 - - 13 7 - - O 990,6 16 0,0
21.10.2017 11:00:00 12,1 10,8 - - 13 7 - - O 990,5 30 0,0
21.10.2017 10:00:00 11,4 10,0 11,7 11,0 15 8 - - O 991,1 50 0,0
21.10.2017 09:00:00 11,1 9,7 - - 16 9 - - OZO 991,1 50 0,0
21.10.2017 08:00:00 10,9 10,0 - - 18 10 - - OZO 991,0 50 0,0
21.10.2017 07:00:00 10,7 9,8 - - 13 7 - - OZO 991,7 50 -
21.10.2017 06:00:00 10,3 8,9 - - 22 12 - - ZO 992,1 18 -
21.10.2017 05:00:00 11,4 10,8 - - 18 10 - - OZO 992,6 13 -
21.10.2017 04:00:00 11,7 10,7 - - 24 13 - - O 993,3 12 -
21.10.2017 03:00:00 11,9 11,4 - - 26 14 - - O 993,7 14 -
21.10.2017 02:00:00 11,9 11,3 - - 29 16 - - O 994,6 6 -
21.10.2017 01:00:00 12,1 10,7 - - 35 19 48 26 OZO 995,2 2,6 -
21.10.2017 00:00:00 12,2 10,2 - - 26 14 - - OZO 996,4 50 -
20.10.2017 23:00:00 12,4 10,3 - - 22 12 - - ZO 996,9 50 -
20.10.2017 22:00:00 12,3 11,1 - - 18 10 - - OZO 997,7 35 -
20.10.2017 21:00:00 12,6 11,5 - - 24 13 - - OZO 998,3 35 0,0
20.10.2017 20:00:00 12,1 11,6 - - 24 13 - - O 998,8 25 0,0
20.10.2017 19:00:00 11,9 11,2 - - 15 8 - - O 999,7 5 0,0
20.10.2017 18:00:00 12,3 11,1 - - 11 6 - - O 999,9 4,3 0,0
20.10.2017 17:00:00 13,1 10,7 - - 9 5 - - O 1000,2 2,9 0,0
20.10.2017 16:00:00 14,8 10,4 - - 9 5 - - OZO 1000,2 50 0,0
20.10.2017 15:00:00 15,0 11,0 - - 9 5 - - ZO 1000,2 45 0,0
20.10.2017 14:00:00 14,8 11,2 - - 8 4 - - O 999,7 13 0,0
20.10.2017 13:00:00 14,3 12,1 - - 8 4 - - ZZO 999,7 40 0,0
20.10.2017 12:00:00 12,3 11,7 - - 5 3 - - ZW 999,8 35 0,0
20.10.2017 11:00:00 11,7 11,4 - - 8 4 - - ZZW 999,3 45 0,0
20.10.2017 10:00:00 11,6 11,5 11,2 11,0 4 2 - - ZZW 998,8 40 0,0
20.10.2017 09:00:00 10,5 10,4 - - 5 3 - - ZZW 997,9 20 0,0
20.10.2017 08:00:00 10,6 10,5 - - 8 4 - - ZW 996,6 50 0,0
20.10.2017 07:00:00 10,7 10,5 - - 5 3 - - ZW 996,0 45 0,0
20.10.2017 06:00:00 11,2 11,0 - - 11 6 - - W 995,5 40 0,0
20.10.2017 05:00:00 11,4 11,3 - - 15 8 - - W 994,8 22 0,0
20.10.2017 04:00:00 11,3 11,3 - - 11 6 - - W 995,0 8 0,4
20.10.2017 03:00:00 11,7 11,7 - - 8 4 - - NW 995,3 4,2 2,2
20.10.2017 02:00:00 11,2 11,2 - - 2 1 - - NO 995,9 1,8 3,0
20.10.2017 01:00:00 11,4 11,3 - - 8 4 - - O 996,4 3,4 1,2
20.10.2017 00:00:00 11,4 11,2 - - 15 8 - - O 997,1 6 0,8
19.10.2017 23:00:00 11,5 11,1 - - 13 7 - - O 997,5 11 0,6
19.10.2017 22:00:00 11,8 10,9 - - 21 11 - - OZO 998,0 14 0,8
19.10.2017 21:00:00 12,1 11,0 - - 18 10 - - O 998,1 18 0,0
19.10.2017 20:00:00 12,3 10,8 - - 21 11 - - O 998,2 30 0,0
19.10.2017 19:00:00 12,4 10,9 - - 21 11 - - O 998,5 18 0,0
19.10.2017 18:00:00 12,9 11,0 - - 26 14 - - OZO 998,8 25 0,0
19.10.2017 17:00:00 13,2 11,1 - - 24 13 - - OZO 999,1 45 0,0
19.10.2017 16:00:00 13,4 11,2 - - 26 14 - - OZO 999,6 40 0,0
19.10.2017 15:00:00 13,7 11,2 - - 29 16 - - OZO 1000,0 40 0,0
19.10.2017 14:00:00 13,2 10,9 - - 22 12 - - OZO 1000,5 50 0,0
19.10.2017 13:00:00 12,9 10,6 - - 24 13 - - ZZO 1001,3 35 0,0
19.10.2017 12:00:00 13,1 10,3 - - 26 14 - - ZZO 1001,5 17 0,0
19.10.2017 11:00:00 13,1 10,4 - - 13 7 - - ZZO 1001,8 26 0,0
19.10.2017 10:00:00 12,3 10,0 11,0 11,0 15 8 - - OZO 1002,1 18 0,0
19.10.2017 09:00:00 11,4 9,7 - - 22 12 - - O 1002,1 40 0,0
19.10.2017 08:00:00 11,0 9,2 - - 24 13 - - OZO 1002,5 27 0,0
19.10.2017 07:00:00 10,8 9,2 - - 15 8 - - OZO 1003,2 29 0,0
19.10.2017 06:00:00 10,8 8,7 - - 15 8 - - ZO 1003,6 50 0,0
19.10.2017 05:00:00 9,5 8,3 - - 8 4 - - NO 1003,9 45 0,0
19.10.2017 04:00:00 9,3 7,9 - - 13 7 - - OZO 1005,1 30 0,0
19.10.2017 03:00:00 9,6 7,3 - - 18 10 - - OZO 1005,4 45 0,0
19.10.2017 02:00:00 8,7 6,4 - - 15 8 - - OZO 1006,1 50 0,0
19.10.2017 01:00:00 8,7 6,4 - - 18 10 - - ZO 1006,8 45 0,0
19.10.2017 00:00:00 8,3 6,5 - - 18 10 - - ZO 1007,6 50 0,0
18.10.2017 23:00:00 8,5 6,6 - - 18 10 - - OZO 1008,7 50 0,0
18.10.2017 22:00:00 8,7 6,9 - - 22 12 - - OZO 1009,6 50 0,0
18.10.2017 21:00:00 8,8 6,9 - - 24 13 - - O 1009,9 45 0,0
18.10.2017 20:00:00 9,1 7,0 - - 24 13 - - OZO 1010,7 45 0,0
18.10.2017 19:00:00 9,6 7,0 - - 26 14 - - OZO 1011,2 40 0,0
18.10.2017 18:00:00 9,7 6,7 - - 26 14 - - OZO 1011,7 50 0,0
18.10.2017 17:00:00 10,3 6,9 - - 21 11 - - O 1012,4 45 0,0
18.10.2017 16:00:00 10,3 6,3 - - 22 12 - - OZO 1013,0 45 0,0
18.10.2017 15:00:00 10,5 6,0 - - 26 14 - - OZO 1013,5 35 0,0
18.10.2017 14:00:00 10,2 7,6 - - 22 12 - - O 1014,3 35 0,0
18.10.2017 13:00:00 11,0 7,6 - - 24 13 - - O 1014,9 30 0,0
18.10.2017 12:00:00 10,9 6,6 - - 18 10 - - ZO 1015,4 35 0,0
18.10.2017 11:00:00 10,1 6,8 - - 18 10 - - OZO 1015,8 29 0,0
18.10.2017 10:00:00 9,5 7,2 11,2 11,0 16 9 - - ZO 1016,0 13 0,0
18.10.2017 09:00:00 9,1 6,4 - - 9 5 - - ZO 1016,2 40 0,0
18.10.2017 08:00:00 8,7 6,2 - - 8 4 - - OZO 1016,0 45 0,0
18.10.2017 07:00:00 8,9 7,0 - - 15 8 - - NO 1016,0 30 0,0
18.10.2017 06:00:00 8,8 6,8 - - 18 10 - - ONO 1016,3 45 0,0
18.10.2017 05:00:00 8,1 5,9 - - 4 2 - - W 1016,2 30 0,0
18.10.2017 04:00:00 7,5 5,7 - - 9 5 - - NW 1016,4 35 0,0
18.10.2017 03:00:00 7,5 5,5 - - 11 6 - - NW 1016,6 40 0,0
18.10.2017 02:00:00 7,2 5,1 - - 9 5 - - NW 1016,8 30 0,0
18.10.2017 01:00:00 7,5 5,3 - - 9 5 - - NW 1017,0 30 0,0
18.10.2017 00:00:00 7,0 5,6 - - 9 5 - - NW 1016,6 19 0,0
17.10.2017 23:00:00 7,2 5,7 - - 9 5 - - NNW 1016,4 14 0,0
17.10.2017 22:00:00 8,9 6,6 - - 15 8 - - N 1015,8 6 0,0
17.10.2017 21:00:00 7,8 6,2 - - 16 9 - - NNW 1015,2 16 0,0
17.10.2017 20:00:00 8,7 7,1 - - 11 6 - - NW 1014,9 16 0,0
17.10.2017 19:00:00 9,4 7,4 - - 21 11 - - N 1014,1 13 0,0
17.10.2017 18:00:00 9,6 9,1 - - 15 8 - - NNW 1012,9 10 0,8
17.10.2017 17:00:00 9,6 8,5 - - 16 9 - - N 1011,7 4,5 0,0
17.10.2017 16:00:00 10,6 7,9 - - 28 15 - - N 1010,3 21 0,0
17.10.2017 15:00:00 10,9 8,2 - - 29 16 - - N 1008,6 21 0,0
17.10.2017 14:00:00 11,4 8,9 - - 29 16 - - N 1006,6 19 0,0
17.10.2017 13:00:00 11,5 9,7 - - 29 16 - - NNW 1004,9 15 0,0
17.10.2017 12:00:00 11,9 10,5 - - 31 17 - - NNW 1002,3 40 0,0
17.10.2017 11:00:00 12,6 11,0 - - 28 15 - - WNW 999,8 40 0,0
17.10.2017 10:00:00 13,0 11,7 11,4 11,0 24 13 - - W 997,5 40 0,0
17.10.2017 09:00:00 12,2 11,2 - - 22 12 - - W 995,8 50 0,0
17.10.2017 08:00:00 12,0 11,2 - - 15 8 - - W 993,9 45 0,0
17.10.2017 07:00:00 11,5 11,2 - - 21 11 - - W 992,0 40 0,2
17.10.2017 06:00:00 11,3 11,1 - - 18 10 - - W 989,3 26 0,4
17.10.2017 05:00:00 11,7 11,1 - - 9 5 - - OZO 987,7 16 1,0
17.10.2017 04:00:00 11,7 10,8 - - 13 7 - - O 988,0 23 0,6
17.10.2017 03:00:00 12,4 10,5 - - 21 11 - - ZO 988,7 45 0,0
17.10.2017 02:00:00 12,7 10,5 - - 18 10 - - ZO 989,3 50 0,0
17.10.2017 01:00:00 12,3 10,4 - - 18 10 - - ZO 989,9 29 0,0
17.10.2017 00:00:00 12,8 10,0 - - 26 14 - - ZO 990,7 50 0,0
16.10.2017 23:00:00 12,9 9,8 - - 31 17 - - OZO 992,0 35 0,0
16.10.2017 22:00:00 12,8 11,8 - - 28 15 - - OZO 993,4 29 0,0
16.10.2017 21:00:00 12,5 11,9 - - 29 16 46 25 O 995,3 15 0,0
16.10.2017 20:00:00 12,1 11,9 - - 41 22 65 35 O 996,9 10 0,8
16.10.2017 19:00:00 11,6 11,4 - - 48 26 68 37 O 999,3 3,5 -
16.10.2017 18:00:00 11,1 10,9 - - 42 23 57 31 O 1001,7 6 1,4
16.10.2017 17:00:00 10,2 10,1 - - 39 21 55 30 O 1004,7 2,1 0,2
16.10.2017 16:00:00 9,9 9,2 - - 41 22 57 31 O 1005,9 2,4 0,0
16.10.2017 15:00:00 10,3 9,4 - - 29 16 - - O 1008,0 35 0,2
16.10.2017 14:00:00 9,8 9,2 - - 22 12 - - ONO 1010,0 19 0,4
16.10.2017 13:00:00 9,5 8,9 - - 21 11 - - ONO 1011,3 13 1,0

tt = temperatuur
td = dauwpunt
tt -20cm = temperatuur -20cm
tt -100cm = temperatuur -100cm
ff = windsnelheid
fx = windstoten
dd = windrichting
ppp = luchtdruk
vv = zicht
rr = neerslag

Weerstations in de omgeving